[[{"header":{"parameterUnit":"m.s-1","parameterCategory":1,"la1":30.2991,"la2":30.254,"lo1":-89.0895,"lo2":-89.0444,"dy":0.0017,"dx":0.0017,"nx":28,"ny":28,"refTime":"2023-04-05T15:00:00:Z","depth":0,"parameterNumber":2,"parameterNumberName":"U-component_of_WINDS"},"data":[0,0,0,0,0,0,0,0,0,0,0,0,0,0,0,0,0,0,0,0,0,0,0,0,0,0,0,0,0,0,0,0,0,0,0,0,0,0,0,0,0,0,0,0,0,0,0,0,0,0,0,0,0,0,0,0,0,0,-1.8027,-1.8027,0,-1.8013,-1.8013,-1.8013,-1.7981,-1.7981,-1.798,-1.798,-1.7966,-1.7966,-1.7966,0,0,0,0,0,0,0,0,0,0,0,0,0,-1.8029,-1.8029,-1.8027,-1.8027,-1.8027,-1.8013,-1.8013,-1.8012,-1.7982,-1.7981,-1.798,-1.7979,-1.7966,-1.7966,-1.7966,0,0,0,0,0,0,0,0,0,0,0,0,0,-1.8023,-1.8029,-1.8027,-1.801,-1.8008,-1.8013,-1.8013,-1.8012,-1.7982,-1.7981,-1.798,-1.7979,-1.7966,-1.7966,-1.7966,-1.7988,0,0,-1.7967,-1.7968,0,0,0,0,0,0,0,0,-1.8023,-1.8023,-1.8012,-1.8011,-1.8009,-1.7998,-1.8008,-1.8004,-1.7982,-1.7992,-1.798,-1.7978,-1.7977,-1.7977,-1.7976,-1.7987,-1.7986,-1.7968,-1.7968,-1.7968,-1.7968,0,0,0,0,0,0,0,-1.8024,-1.8023,-1.8021,-1.8012,-1.801,-1.8003,-1.8001,-1.8007,-1.799,-1.7991,-1.7988,-1.7987,-1.7976,-1.7976,-1.7976,-1.7986,-1.7967,-1.7968,-1.7968,-1.7968,-1.8014,-1.8015,0,0,0,0,0,0,-1.8027,-1.8024,-1.8022,-1.8021,-1.8014,-1.8004,-1.8002,-1.8002,-1.799,-1.7987,-1.7988,-1.7986,-1.7976,-1.7975,-1.7975,-1.7999,-1.7968,-1.7968,-1.7968,-1.8013,-1.8014,-1.8016,0,0,0,0,0,0,-1.8027,-1.8027,-1.8022,-1.8022,-1.8021,-1.8005,-1.8006,-1.8003,-1.8002,-1.7988,-1.7985,-1.7991,-1.7975,-1.7975,-1.7985,-1.7998,-1.7968,-1.7969,-1.8012,-1.8014,-1.8015,-1.8047,0,0,0,0,0,0,-1.8027,-1.8027,-1.8034,-1.8022,-1.8021,-1.8032,-1.8007,-1.8003,-1.8003,-1.8,-1.7989,-1.7987,-1.7974,-1.7984,-1.7985,-1.7998,-1.7969,-1.8011,-1.8013,-1.8015,-1.8045,-1.805,-1.8054,0,0,0,0,0,-1.8027,-1.8044,-1.8035,-1.8035,-1.803,-1.8033,-1.8032,-1.8017,-1.8004,-1.8012,-1.8002,-1.7987,-1.7997,-1.7986,-1.7986,-1.7999,-1.801,-1.8012,-1.8014,-1.8043,-1.8049,-1.8054,0,0,0,0,0,0,-1.8058,-1.8042,-1.8032,-1.8045,-1.8041,-1.8028,-1.8036,-1.8024,-1.8023,-1.802,-1.8002,-1.8,-1.8012,-1.8007,-1.7995,-1.802,-1.8001,-1.8003,-1.8022,-1.8028,-1.8032,-1.8033,-1.7969,0,0,0,0,0,-1.8067,-1.807,-1.8056,-1.8069,-1.8068,-1.8053,-1.8053,-1.8042,-1.8037,-1.8035,-1.8026,-1.8022,-1.8024,-1.8026,-1.8027,-1.8044,-1.8042,-1.8054,-1.8058,-1.8062,-1.8064,-1.8073,-1.8079,-1.8023,-1.8023,-1.8023,0,0,-1.8084,-1.8076,-1.8079,-1.8075,-1.807,-1.8075,-1.8051,-1.8057,-1.806,-1.8036,-1.8045,-1.8039,-1.8033,-1.8047,-1.8053,-1.8043,-1.8079,-1.8065,-1.8068,-1.8068,-1.8076,-1.8082,-1.8086,-1.8025,-1.8024,-1.8024,0,0,-1.8118,-1.8112,-1.8122,-1.8118,-1.8111,-1.8101,-1.8104,-1.8093,-1.8088,-1.8097,-1.8079,-1.8083,-1.8087,-1.8083,-1.8082,-1.8116,-1.8102,-1.8117,-1.814,-1.8149,-1.8153,-1.8157,-1.8169,-1.8174,-1.8119,-1.812,-1.812,0,-1.814,-1.8146,-1.8129,-1.8136,-1.8135,-1.8114,-1.8125,-1.8121,-1.8115,-1.8116,-1.8105,-1.811,-1.8104,-1.8117,-1.8126,-1.8125,-1.8128,-1.8118,-1.8154,-1.8158,-1.8161,-1.8172,-1.8177,-1.8121,-1.8121,-1.8121,-1.8121,0,-1.8174,-1.8178,-1.8187,-1.8182,-1.8182,-1.8191,-1.8177,-1.8179,-1.8168,-1.816,-1.817,-1.8163,-1.8162,-1.8164,-1.8154,-1.8176,-1.817,-1.8157,-1.8138,-1.8168,-1.8179,-1.8183,-1.8124,-1.8123,-1.8123,-1.8122,0,0,-1.8226,-1.8212,-1.8215,-1.8213,-1.8204,-1.8207,-1.8216,-1.8215,-1.8217,-1.8214,-1.8221,-1.8225,-1.8213,-1.8212,-1.8201,-1.8209,-1.8237,-1.8195,-1.8195,-1.8203,-1.8261,-1.8271,-1.8276,-1.8228,-1.8229,-1.8229,-1.8262,0,-1.8257,-1.8269,-1.8256,-1.8271,-1.8275,-1.8256,-1.8263,-1.8259,-1.8252,-1.8254,-1.8246,-1.825,-1.8234,-1.8233,-1.824,-1.8232,-1.8248,-1.823,-1.8234,-1.8234,-1.8235,-1.8281,-1.8291,-1.8322,-1.8266,-1.8266,-1.8267,0,-1.8295,-1.8293,-1.831,-1.83,-1.8301,-1.8308,-1.8307,-1.831,-1.8305,-1.8299,-1.8298,-1.8285,-1.8293,-1.8275,-1.8287,-1.8274,-1.8276,-1.8272,-1.8273,-1.8272,-1.8252,-1.8282,-1.8332,-1.8336,-1.8273,-1.8272,-1.8272,0,-1.8331,-1.8333,-1.8343,-1.8341,-1.8331,-1.8336,-1.8332,-1.8327,-1.8327,-1.8326,-1.8327,-1.8327,-1.8327,-1.8328,-1.8316,-1.8304,-1.8329,-1.831,-1.8324,-1.8325,-1.833,-1.8329,-1.838,-1.8332,-1.8332,-1.8332,-1.8332,0,-1.8367,-1.8377,-1.8359,-1.8365,-1.8377,-1.8361,-1.8373,-1.8367,-1.8363,-1.8368,-1.8351,-1.8356,-1.834,-1.8344,-1.8335,-1.8346,-1.8346,-1.8342,-1.8339,-1.8343,-1.8343,-1.8343,-1.834,-1.8333,-1.8333,-1.8332,-1.8332,0,-1.8408,-1.8396,-1.8406,-1.8396,-1.8393,-1.8402,-1.8394,-1.8399,-1.8391,-1.8398,-1.8399,-1.8386,-1.839,-1.8378,-1.838,-1.8374,-1.839,-1.8384,-1.8391,-1.8389,-1.8404,-1.8403,-1.8456,-1.8462,-1.841,-1.8411,-1.8411,0,-1.8432,-1.8439,-1.843,-1.8432,-1.8429,-1.8432,-1.8433,-1.8419,-1.842,-1.8416,-1.8422,-1.8425,-1.8425,-1.8432,-1.8424,-1.8425,-1.8419,-1.8438,-1.8419,-1.8423,-1.8419,-1.8419,-1.8419,-1.8441,-1.8442,-1.8442,-1.8443,0,-1.8475,-1.8469,-1.847,-1.847,-1.8471,-1.847,-1.8468,-1.8471,-1.8456,-1.8458,-1.8462,-1.8462,-1.8464,-1.8467,-1.8467,-1.8463,-1.8451,-1.8449,-1.8452,-1.8456,-1.846,-1.8458,-1.8401,-1.8448,-1.8447,-1.8447,-1.8446,-1.8446,-1.8508,-1.8514,-1.8508,-1.851,-1.8507,-1.8506,-1.8511,-1.8504,-1.8506,-1.8506,-1.8498,-1.8503,-1.8499,-1.8498,-1.8496,-1.85,-1.8491,-1.8497,-1.8498,-1.8499,-1.8502,-1.846,-1.85,-1.85,-1.85,-1.85,-1.85,0,-1.8549,-1.8545,-1.8547,-1.8545,-1.8547,-1.8535,-1.8533,-1.8535,-1.854,-1.8537,-1.8539,-1.8543,-1.8546,-1.8538,-1.8539,-1.8544,-1.8539,-1.8545,-1.8545,-1.8544,-1.8509,-1.8506,-1.855,-1.855,-1.855,-1.855,-1.855,-1.855,-1.8571,-1.8581,-1.8574,-1.8583,-1.8578,-1.8583,-1.8583,-1.8582,-1.8579,-1.8585,-1.8587,-1.8582,-1.8577,-1.8579,-1.8581,-1.8578,-1.858,-1.8588,-1.8584,-1.8551,-1.8546,-1.8542,-1.8538,-1.8589,-1.8589,-1.8618,-1.8619,-1.8619]},{"header":{"parameterUnit":"m.s-1","parameterCategory":1,"la1":30.2991,"la2":30.254,"lo1":-89.0895,"lo2":-89.0444,"dy":0.0017,"dx":0.0017,"nx":28,"ny":28,"refTime":"2023-04-05T15:00:00:Z","depth":0,"parameterNumber":3,"parameterNumberName":"V-component_of_WINDS"},"data":[0,0,0,0,0,0,0,0,0,0,0,0,0,0,0,0,0,0,0,0,0,0,0,0,0,0,0,0,0,0,0,0,0,0,0,0,0,0,0,0,0,0,0,0,0,0,0,0,0,0,0,0,0,0,0,0,0,0,1.2246,1.2246,0,1.2218,1.2218,1.2218,1.2237,1.2238,1.2239,1.224,1.2211,1.2209,1.2208,0,0,0,0,0,0,0,0,0,0,0,0,0,1.2318,1.2317,1.2246,1.2246,1.2246,1.2218,1.2218,1.2218,1.2237,1.2238,1.2239,1.224,1.2211,1.2209,1.2207,0,0,0,0,0,0,0,0,0,0,0,0,0,1.2288,1.2316,1.2247,1.2252,1.2253,1.2218,1.2218,1.2217,1.2237,1.2238,1.224,1.2241,1.2212,1.221,1.2207,1.2166,0,0,1.22,1.2199,0,0,0,0,0,0,0,0,1.229,1.2285,1.2252,1.2252,1.2252,1.2233,1.2232,1.22,1.2237,1.2243,1.224,1.2242,1.2217,1.2214,1.2206,1.2164,1.2163,1.22,1.2198,1.2197,1.2196,0,0,0,0,0,0,0,1.2292,1.2287,1.2235,1.2251,1.2251,1.2257,1.2254,1.2226,1.2223,1.2242,1.2244,1.224,1.2217,1.2208,1.2205,1.2163,1.22,1.2197,1.2196,1.2195,1.2087,1.2086,0,0,0,0,0,0,1.2293,1.2288,1.2236,1.2234,1.2275,1.2254,1.2251,1.2238,1.2223,1.2222,1.2239,1.2241,1.2212,1.2208,1.2204,1.2156,1.2197,1.2195,1.2193,1.2089,1.2087,1.2085,0,0,0,0,0,0,1.2295,1.2289,1.2237,1.2262,1.2256,1.2252,1.2236,1.2236,1.2227,1.2221,1.222,1.2231,1.2213,1.2208,1.2176,1.2155,1.2194,1.2192,1.209,1.2088,1.2086,1.2058,0,0,0,0,0,0,1.2297,1.2289,1.2273,1.2261,1.2254,1.2208,1.2235,1.2235,1.2223,1.2226,1.2212,1.2211,1.2213,1.2179,1.2173,1.2153,1.219,1.2092,1.2089,1.2087,1.2061,1.2055,1.205,0,0,0,0,0,1.2299,1.2265,1.2272,1.2265,1.2234,1.2207,1.2203,1.2206,1.2221,1.2205,1.2202,1.2212,1.2158,1.2176,1.2169,1.2147,1.2093,1.209,1.2087,1.2063,1.2056,1.205,0,0,0,0,0,0,1.2274,1.2264,1.2271,1.2232,1.2221,1.2211,1.219,1.2199,1.2182,1.2185,1.2189,1.2186,1.2153,1.2147,1.2166,1.2107,1.2128,1.2124,1.2112,1.2106,1.2101,1.2103,1.2188,0,0,0,0,0,1.2264,1.2243,1.2236,1.2202,1.2196,1.2194,1.2183,1.2186,1.2174,1.2169,1.2163,1.215,1.2131,1.2118,1.21,1.206,1.2058,1.2042,1.2037,1.2033,1.2029,1.2009,1.2002,1.2075,1.2075,1.2075,0,0,1.2243,1.2235,1.2221,1.2197,1.2188,1.2167,1.219,1.2166,1.215,1.2165,1.2135,1.213,1.2117,1.2081,1.2065,1.2075,1.2008,1.2029,1.2025,1.2024,1.2005,1.1998,1.1991,1.2073,1.2073,1.2074,0,0,1.2194,1.2185,1.2157,1.2148,1.2135,1.2135,1.2128,1.2117,1.2115,1.2084,1.2095,1.2077,1.2043,1.2034,1.2025,1.1974,1.1983,1.1968,1.1941,1.1921,1.1915,1.191,1.1893,1.1886,1.1964,1.1964,1.1964,0,1.2169,1.2137,1.2142,1.2117,1.2107,1.212,1.2092,1.2084,1.2065,1.2058,1.2069,1.2029,1.202,1.1983,1.1971,1.1963,1.1956,1.1969,1.1916,1.1911,1.1906,1.189,1.1883,1.1962,1.1962,1.1962,1.1963,0,1.2108,1.2086,1.2065,1.2047,1.2035,1.2008,1.2009,1.1996,1.2001,1.1999,1.1969,1.196,1.1941,1.1932,1.1937,1.1896,1.1903,1.1915,1.1936,1.1897,1.1882,1.1875,1.196,1.196,1.1961,1.1961,0,0,1.2041,1.2028,1.202,1.2013,1.2,1.1983,1.1958,1.194,1.1929,1.1916,1.1895,1.1867,1.1879,1.1869,1.1872,1.1855,1.1817,1.187,1.1869,1.1861,1.1773,1.1764,1.1756,1.1823,1.1822,1.1821,1.1774,0,1.1992,1.1948,1.1952,1.1911,1.1892,1.1905,1.1884,1.1874,1.1872,1.1855,1.1853,1.1834,1.185,1.1844,1.1828,1.1825,1.1799,1.1828,1.1805,1.1804,1.1807,1.1748,1.1738,1.1694,1.1768,1.1767,1.1766,0,1.1928,1.1914,1.1871,1.1863,1.1854,1.1835,1.1819,1.1803,1.1793,1.1793,1.1782,1.1789,1.1765,1.1787,1.1754,1.1774,1.1764,1.1762,1.176,1.1758,1.1782,1.1744,1.168,1.1673,1.1756,1.1757,1.1758,0,1.1884,1.1854,1.1825,1.1818,1.1808,1.1794,1.1789,1.178,1.1769,1.1756,1.1749,1.1733,1.1724,1.1711,1.1714,1.173,1.1681,1.1703,1.168,1.168,1.1669,1.167,1.1602,1.1663,1.1663,1.1663,1.1663,0,1.1829,1.1802,1.1805,1.1787,1.1759,1.1764,1.1735,1.1732,1.1724,1.1706,1.1717,1.17,1.1705,1.1688,1.169,1.1663,1.1659,1.1658,1.1659,1.1657,1.1658,1.1651,1.1654,1.1661,1.1662,1.1662,1.1662,0,1.1774,1.1776,1.1745,1.1738,1.1736,1.1715,1.1709,1.1692,1.1692,1.1669,1.1664,1.1664,1.1645,1.1647,1.1625,1.1627,1.1593,1.1598,1.1597,1.1598,1.1576,1.1578,1.1502,1.1492,1.1559,1.1558,1.1558,0,1.1739,1.1719,1.171,1.1699,1.1693,1.1675,1.1665,1.167,1.1658,1.1646,1.1631,1.1614,1.16,1.1569,1.1567,1.1551,1.1555,1.153,1.1553,1.1552,1.1555,1.1557,1.1555,1.1525,1.1524,1.1524,1.1523,0,1.1676,1.1678,1.1662,1.1647,1.1635,1.1623,1.1612,1.1603,1.1607,1.1594,1.1575,1.1564,1.1543,1.1526,1.1511,1.1506,1.1515,1.1516,1.151,1.1508,1.1509,1.1509,1.1585,1.1518,1.1518,1.1519,1.1519,1.1519,1.163,1.1614,1.1606,1.1588,1.1581,1.1571,1.1556,1.1554,1.1538,1.1522,1.1526,1.1505,1.1496,1.1478,1.1472,1.1456,1.1465,1.1456,1.1454,1.1452,1.1449,1.1511,1.1453,1.1453,1.1453,1.1453,1.1453,0,1.1569,1.1564,1.1548,1.1534,1.152,1.1531,1.152,1.1508,1.149,1.1481,1.1468,1.1447,1.143,1.1427,1.1412,1.14,1.1404,1.1395,1.1396,1.1395,1.1442,1.1449,1.1393,1.1393,1.1393,1.1393,1.1393,1.1393,1.1535,1.1508,1.1509,1.1479,1.1475,1.1454,1.1448,1.1439,1.1432,1.1408,1.1395,1.1393,1.1387,1.1372,1.1357,1.1357,1.1351,1.1341,1.1343,1.1386,1.1392,1.1398,1.1404,1.134,1.134,1.1298,1.1297,1.1297]}]]